Meteo Giornale » Osservazioni meteo Stati Uniti (USA) » Toledo Express
ore: 00:52 - Osservazioni Meteo Toledo Express
Lat. 41° 35' N Lon. 83° 48' W Alt. 208 metri s.l.m.
24 °C
Sereno
Temp. 24 Ore
22 °C
29 °C
Sud/Sud-Ovest
9.3 Km/h
Dew point 22 °C
Umidità 88 %
Visibilità 10 Km
Il sole sorge alle ore 07:01
Il sole tramonta alle ore 20:08
| Data e Ora | Cielo e Fenomeni | T °C | DP °C | Um. % | Pres. hPa | Vis. km | Vento km/h | |
|---|---|---|---|---|---|---|---|---|
| Oggi h: 00:52 | Sereno | 24 | 22 | 88 | 1015 | 10 | S/SO 9.3 | |
| Ieri h: 23:52 | Sereno | 24 | 22 | 88 | 1015 | 10 | S 9.3 | |
| Ieri h: 22:52 | Sereno | 24 | 22 | 88 | 1015 | 10 | S 9.3 | |
| Ieri h: 21:52 | Sereno | 24 | 22 | 88 | 1015 | 10 | N 5.5 | |
| Ieri h: 20:52 | Sereno | 24 | 21 | 83 | 1014 | 10 | S 14.8 | |
| Ieri h: 19:52 | Poco Nuvoloso | 24 | 21 | 83 | 1015 | 10 | S 13 | |
| Ieri h: 18:52 | Coperto | 26 | 21 | 73 | 1016 | 10 | S 13 | |
| Ieri h: 17:52 | Coperto | 27 | 21 | 69 | 1017 | 10 | N 5.5 | |
| Ieri h: 16:52 | Sereno | 28 | 19 | 58 | 1016 | 10 | S 9.3 | |
| Ieri h: 15:52 | Sereno | 29 | 21 | 62 | 1016 | 10 | S/SO 13 | |
| Ieri h: 14:52 | Sereno | 28 | 21 | 65 | 1017 | 10 | S/SO 11.1 | |
| Ieri h: 13:52 | Sereno | 28 | 21 | 65 | 1017 | 10 | O/SO 9.3 | |
| Ieri h: 12:52 | Nuvoloso | 26 | 21 | 73 | 1018 | 10 | N 5.5 | |
| Ieri h: 11:52 | Sereno | 27 | 21 | 69 | 1018 | 10 | N 5.5 | |
| Ieri h: 10:52 | Sereno | 26 | 21 | 73 | 1018 | 10 | SO 7.4 | |
| Ieri h: 09:52 | Sereno | 25 | 20 | 73 | 1017 | 10 | N 5.5 | |
| Ieri h: 08:52 | Poco Nuvoloso | 23 | 19 | 78 | 1017 | 10 | S/SO 7.4 | |
| Ieri h: 07:52 | Nuvoloso | 23 | 19 | 78 | 1017 | 10 | S/SO 7.4 | |
| Ieri h: 06:52 | Molto Nuvoloso | 22 | 19 | 83 | 1017 | 10 | S 7.4 | |
| Ieri h: 05:52 | Coperto | 23 | 19 | 78 | 1017 | 10 | S 7.4 | |
| Ieri h: 04:52 | Coperto | 23 | 19 | 78 | 1016 | 10 | S/SO 9.3 | |
| Ieri h: 03:52 | Coperto | 23 | 19 | 78 | 1017 | 10 | S/SO 9.3 | |
| Ieri h: 02:52 | Coperto | 22 | 20 | 88 | 1017 | 10 | S/SO 7.4 | |
| Ieri h: 01:52 | Molto Nuvoloso | 22 | 20 | 88 | 1017 | 10 | N 5.5 | |



